Flag Weather past 2 weeks in Zhengzhou, Henan, China

Now
43 °F

Light rain. Fog.


Feels Like: 39 °F
Forecast: 35 / 53 °F
Wind: 6 mph from North

Location: Zhengzhou Airport

Current Time: Nov 29, 2014 at 3:48:45 PM

Latest Report: Nov 29, 2014 at 3:00 PM


Visibility: 1 mi

Pressure: 30.01 "Hg

Humidity: 93%

Dew point: 41 °F

Location of ZhengzhouLocation

Historic Weather in Zhengzhou — Graph

°F

Zhengzhou temperature yesterday

Maximum temperature yesterday: 48 °F (at 1:00 PM)
Minimum temperature yesterday: 39 °F (at 5:00 AM)
Average temperature yesterday: 42 °F

Past Weeks' High & Low Weather Summary

 TemperatureHumidityPressure
High63 °F (Nov 20, 2:00 PM)100% (Nov 15, 9:00 PM)30.54 "Hg (Nov 15, 9:00 PM)
Low32 °F (Nov 17, 6:00 AM)23% (Nov 16, 3:00 PM)29.95 "Hg (Nov 26, 3:00 PM)
Average47 °F71%30.22 "Hg
* Reported Nov 14 2:00 PM — Nov 29 2:00 PM, Zhengzhou, Weather by CustomWeather, © 2014

Note: Actual official high and low records may vary slightly from our data, if they occured in-between our weather recording intervals... More about our weather records

Advertising

Zhengzhou weather history for previous 24 hours

 ConditionsComfort  
Time TempWeatherWind HumidityBarometerVisibility
2:00 PM
Nov 29
43 °FLight rain. Fog.6 mph93%30.01 "Hg1 mi
1:00 PM43 °FLight rain. Fog.3 mph93%30.04 "Hg1 mi
12:00 PM43 °FLight rain. Fog.3 mph93%30.07 "Hg1 mi
11:00 AM41 °FLight rain. Fog.6 mph100%30.09 "Hg1 mi
10:00 AM43 °FLight rain. Fog.6 mph93%30.12 "Hg0 mi
9:00 AM41 °FLight rain. Fog.3 mph93%30.12 "Hg1 mi
8:00 AM41 °FFog.6 mph93%30.12 "Hg1 mi
7:00 AM41 °FFog.6 mph93%30.09 "Hg1 mi
6:00 AM41 °FFog.6 mph93%30.09 "Hg1 mi
5:00 AM41 °FFog.3 mph93%30.12 "Hg1 mi
4:00 AM41 °FFog.6 mph93%30.12 "Hg1 mi
3:00 AM41 °FFog.3 mph93%30.15 "Hg1 mi
2:00 AM41 °FFog.1 mph93%30.15 "Hg1 mi
1:00 AM41 °FFog.1 mph93%30.15 "Hg1 mi
12:00 AM41 °FFog.1 mph93%30.15 "Hg1 mi
11:00 PM
Nov 28
39 °FFog.1 mph93%30.15 "Hg1 mi
10:00 PM39 °FFog.1 mph87%30.15 "Hg1 mi
9:00 PM41 °FFog.3 mph87%30.15 "Hg1 mi
8:00 PM41 °FFog.8 mph87%30.15 "Hg1 mi
7:00 PM41 °FFog.6 mph87%30.15 "Hg2 mi
6:00 PM43 °FFog.1 mph87%30.12 "Hg2 mi
5:00 PM46 °FHaze.1 mph76%30.12 "Hg2 mi
4:00 PM48 °FHaze.1 mph71%30.12 "Hg2 mi
3:00 PM48 °FHaze.1 mph66%30.12 "Hg2 mi
Weather by CustomWeather, © 2014

See weather overviewHow to use our weather pages